TimeAKDT,TemperatureF,Dew PointF,Humidity,Sea Level PressureIn,VisibilityMPH,Wind Direction,Wind SpeedMPH,Gust SpeedMPH,PrecipitationIn,Events,Conditions,WindDirDegrees,DateUTC
12:53 AM,24.1,15.1,69,30.16,10.0,Calm,Calm,-,N/A,,Clear,0,2013-04-18 08:53:00
1:53 AM,23.0,14.0,68,30.17,10.0,Calm,Calm,-,N/A,,Clear,0,2013-04-18 09:53:00
2:53 AM,27.0,12.9,56,30.18,10.0,North,5.8,-,N/A,,Clear,360,2013-04-18 10:53:00
3:53 AM,21.9,12.0,66,30.18,10.0,Calm,Calm,-,N/A,,Clear,0,2013-04-18 11:53:00
4:53 AM,24.1,10.0,55,30.18,10.0,Calm,Calm,-,N/A,,Clear,0,2013-04-18 12:53:00
5:53 AM,18.0,10.9,74,30.18,10.0,Calm,Calm,-,N/A,,Clear,0,2013-04-18 13:53:00
6:53 AM,19.9,12.0,71,30.18,10.0,Calm,Calm,-,N/A,,Clear,0,2013-04-18 14:53:00
7:53 AM,18.0,10.0,71,30.18,10.0,Calm,Calm,-,N/A,,Clear,0,2013-04-18 15:53:00
8:53 AM,25.0,9.0,51,30.18,10.0,NE,3.5,-,N/A,,Clear,40,2013-04-18 16:53:00
9:53 AM,28.0,9.0,45,30.17,10.0,Calm,Calm,-,N/A,,Clear,0,2013-04-18 17:53:00
10:53 AM,30.9,9.0,40,30.17,10.0,North,6.9,-,N/A,,Clear,350,2013-04-18 18:53:00
11:53 AM,30.9,10.0,42,30.16,10.0,Calm,Calm,-,N/A,,Clear,0,2013-04-18 19:53:00
12:53 PM,33.1,10.9,40,30.16,10.0,NNW,5.8,-,N/A,,Clear,340,2013-04-18 20:53:00
1:53 PM,35.1,12.9,40,30.15,10.0,Variable,3.5,-,N/A,,Clear,0,2013-04-18 21:53:00
2:53 PM,37.0,12.0,36,30.14,10.0,WNW,3.5,-,N/A,,Clear,290,2013-04-18 22:53:00
3:53 PM,39.0,10.0,30,30.14,10.0,WNW,5.8,-,N/A,,Clear,290,2013-04-18 23:53:00
4:53 PM,39.0,16.0,39,30.12,10.0,West,6.9,-,N/A,,Clear,280,2013-04-19 00:53:00
5:53 PM,37.9,17.1,43,30.11,10.0,West,6.9,-,N/A,,Clear,260,2013-04-19 01:53:00
6:53 PM,37.0,16.0,42,30.11,10.0,West,5.8,-,N/A,,Clear,280,2013-04-19 02:53:00
7:53 PM,34.0,23.0,64,30.11,10.0,WNW,5.8,-,N/A,,Clear,300,2013-04-19 03:53:00
8:53 PM,34.0,15.1,46,30.12,10.0,Calm,Calm,-,N/A,,Clear,0,2013-04-19 04:53:00
9:53 PM,33.1,14.0,46,30.13,10.0,Calm,Calm,-,N/A,,Clear,0,2013-04-19 05:53:00
10:53 PM,30.0,18.0,61,30.14,10.0,Calm,Calm,-,N/A,,Clear,0,2013-04-19 06:53:00
11:53 PM,28.9,18.0,64,30.14,10.0,Calm,Calm,-,N/A,,Clear,0,2013-04-19 07:53:00